Location: York
(31.8935°S, 116.7682°E)
Time: 08:34:08
(UTC+08:00)

N. Korean satellite - Pass Details

Date: 16 May 2021
Orbit: 450 x 500 km, 97.2° (Epoch: 13 June)

Event Time Altitude Azimuth Distance (km) Brightness Sun altitude
Rises 18:20:48 0° 190° (S) 2,628 10.2 -12.4°
Reaches altitude 10° 18:23:28 10° 210° (SSW) 1,735 9.6 -12.9°
Maximum altitude 18:25:54 17° 251° (WSW) 1,352 9.6 -13.4°
Drops below altitude 10° 18:28:20 10° 292° (WNW) 1,717 10.8 -13.9°
Sets 18:30:57 0° 313° (NW) 2,587 11.4 -14.4°
